www.pogodaiklimat.ru

Погода и климат >> Архив погоды >> Вануату >> Lamap Malekula


ПОГОДА в Lamap Malekula

  • Прогноз погоды в Lamap Malekula
  • Монитор погоды в Lamap Malekula
  • Климат города

АРХИВ ПОГОДЫ в Lamap Malekula

Время (UTC), дата Ветер
(напр.,м/с)
 
Видим.   Явления Облачность Т
(С)
Тd
(С)
f
(%)
Тe
(С)
Тes
(С)
Комфортность P
(гПа)
Po
(гПа)
Тmin
(С)
Tmax
(С)
R
(мм)
R24
(мм)
S
(см)
18 11.10 В 4 20 км 8/8 750 м
[Cu med, cong]
+25.1 +22.6 86 +33 +33 очень
душно
1012.3 1012.0
21 11.10 В 4 20 км 5/5 750 м
[Cu med, cong]
+27.4 +23.4 79 +37 +39 очень
душно
1014.0 1014.0
00 12.10 В 5 20 км 6/6 750 м
[Cu med, cong]
+28.8 +24.2 76 +40 +44 очень
душно
1014.2 1014.0 +24.9
03 12.10 В 5 20 км 9/9 660 м
[Cu med, cong]
+28.1 +23.6 77 +39 +39 очень
душно
1012.2 1012.0
06 12.10 В 5 20 км мгла 3/3 750 м
[Cu med, cong]
+26.7 +23.1 81 +36 +36 очень
душно
1011.3 1011.0
09 12.10 В 4 20 км 1/1 750 м
[Cu hum]
+25.7 +22.4 82 +34 +34 очень
душно
1013.4 1013.0
12 12.10 В 4 20 км 1/1 750 м
[Cu hum]
+25.5 +22.4 83 +33 +33 очень
душно
1013.5 1014.0 +29.7
21 12.10 В 5 20 км 6/6 750 м
[Cu med, cong]
+27.5 +21.9 72 +36 +37 очень
душно
1014.0 1014.0
00 13.10 В 6 20 км 8/8 750 м
[Cu med, cong]
+28.0 +22.2 71 +37 +38 очень
душно
1014.0 1014.0 +24.7
03 13.10 В 5 20 км 6/3 750 м
[Cu med, cong Ci sp]
+29.0 +23.1 71 +39 +45 очень
душно
1012.4 1012.0
06 13.10 В 6 20 км 6/6 750 м
[Cu med, cong]
+26.4 +21.7 75 +34 +34 очень
душно
1012.7 1013.0
09 13.10 ЮВ 3 20 км 1/1 750 м
[Cu hum]
+24.9 +19.2 71 +30 +30 душно 1014.7 1015.0
21 13.10 ЮВ 5 20 км 9/6 750 м
[Cu med, cong Ci sp]
+26.2 +19.9 68 +32 +33 очень
душно
1015.4 1015.0
00 14.10 ЮВ 4 20 км 9/9 750 м
[Cu med, cong]
+28.2 +22.1 70 +37 +38 очень
душно
1015.1 1015.0 +23.7
03 14.10 ЮВ 4 20 км 9/9 750 м
[Cu med, cong]
+26.9 +21.6 73 +34 +35 очень
душно
1013.5 1014.0
06 14.10 ЮВ 4 20 км 9/9 660 м
[Cu med, cong]
+25.8 +21.4 77 +33 +33 очень
душно
1013.5 1014.0
09 14.10 ЮВ 5 20 км 9/9 660 м
[Cu med, cong]
+25.3 +21.4 79 +32 +32 очень
душно
1014.9 1015.0
21 14.10 ЮВ 6 20 км 9/9 750 м
[Cu Sc]
+26.1 +22.1 79 +34 +34 очень
душно
1015.0 1015.0
00 15.10 В 7 20 км 9/6 750 м
[Cu med, cong Ac As]
+26.7 +22.7 79 +35 +36 очень
душно
1014.8 1015.0 +24.7
03 15.10 В 7 20 км слабый ливневой дождь 10/6 660 м
[Cu med, cong Ac As]
+24.5 +23.1 92 +33 +33 очень
душно
1012.8 1013.0
06 15.10 Ю 3 20 км {ливн. осадки, гроза} 10/6 540 м
[Cb cap Ac As]
+25.2 +22.8 87 +33 +34 очень
душно
1012.7 1013.0 13
09 15.10 ЮВ 5 20 км {гроза, ливн. осадки} 10/6 660 м
[Cb cap Ac As]
+23.6 +22.5 94 +31 +31 очень
душно
1014.3 1014.0
21 15.10 В 6 20 км 8/4 750 м
[Cu med, cong Ac trans]
+26.5 +23.1 82 +36 +37 очень
душно
1013.2 1013.0
00 16.10 В 8 20 км 9/4 750 м
[Cu med, cong Ac As]
+27.6 +23.8 80 +38 +39 очень
душно
1012.9 1013.0 +23.0 23
03 16.10 В 5 20 км 8/8 750 м
[Cu Sc]
+27.2 +24.2 84 +38 +40 очень
душно
1010.9 1011.0
06 16.10 В 6 20 км 10/10 600 м
[Cu Sc]
+26.0 +24.2 90 +36 +36 очень
душно
1010.7 1011.0
09 16.10 В 7 20 км зарница {гроза} 10/5 750 м
[Cb cap As op]
+26.1 +24.0 88 +36 +36 очень
душно
1011.9 1012.0
21 16.10 З 4 10 км слабый дождь 10/6 600 м
[Cb cap Ac As]
+22.4 +21.6 95 +30 +30 очень
душно
1013.5 1014.0
00 17.10 В 4 20 км {ливн. осадки} 10/6 750 м
[Cu med, cong As op]
+25.5 +23.2 87 +34 +35 очень
душно
1011.4 1011.0 +25.5 32
03 17.10 С 5 20 км 10/6 660 м
[Cb cap As op]
+27.0 +23.5 81 +37 +37 очень
душно
1010.0 1010.0
06 17.10 В 5 20 км 9/4 660 м
[Cu med, cong Ac trans]
+26.9 +23.6 82 +37 +37 очень
душно
1010.2 1010.0
09 17.10 В 3 20 км 10/4 750 м
[Cu med, cong As op]
+26.0 +23.2 85 +35 +35 очень
душно
1011.7 1012.0
21 17.10 В 4 20 км 9/4 750 м
[Cu med, cong Ac trans]
+28.5 +24.3 78 +40 +42 очень
душно
1012.9 1013.0
00 18.10 В 4 20 км 8/8 660 м
[Cb cap]
+30.0 +25.3 76 +44 +47 опасность
перегрева
1012.8 1013.0 +23.8
03 18.10 В 3 20 км 8/8 660 м
[Cb cap]
+28.8 +24.0 75 +40 +43 очень
душно
1011.1 1011.0
06 18.10 В 6 20 км 10/9 660 м
[Cb cap]
+26.7 +23.9 85 +37 +37 очень
душно
1011.1 1011.0
09 18.10 В 5 20 км 8/8 750 м
[Cu med, cong Ac trans]
+26.2 +23.9 87 +36 +36 очень
душно
1013.0 1013.0
12 18.10 В 5 20 км 1/1 750 м
[Cu med, cong]
+25.8 +23.9 89 +35 +35 очень
душно
1013.4 1013.0 +30.6

 

Местоположение метеостанции Lamap Malekula (Вануату): широта -16.41 долгота 167.80 высота над уровнем моря 26 м.

В архиве по умолчанию представлена погода в Lamap Malekula за последнюю неделю. Архивные данные за месяц целиком и за предыдущие месяцы, начиная с января 2011 года, Вы можете получить, выбрав интересующий диапазон дат из раскрывающегося списка и нажав кнопку "Ввод!".


*Определитесь, кто Вы:
робот инопланетянин человек

Внимание! Время в таблицах - всемирное. Для получения местного времени необходимо прибавить поправку, которая в Lamap Malekula равна 11 ч.

Смотрите также архив погоды в соседних городах и на ближайших метеорологических станциях:

Погода в Pekoa Airport Santo (Вануату) (118 км)
Погода в Saratamata (Вануату) (129 км)
Погода в Bauerfield Efate (Вануату) (153 км)
Погода в Erromanga (Вануату) (285 км)
Погода в Sola Vanua Lava (Вануату) (286 км)
Погода в Linua Airport (Вануату) (366 км)
Погода в Whitegrass Tanna (Вануату) (370 км)
Погода в Anelghowhat (Вануату) (473 км)
Погода в Ouanaham Ile Lifou (Новая Каледония) (488 км)
Погода в Ouloup Ile Ouvea (Новая Каледония) (489 км)

Пояснения к столбцам:

Ветер - указаны скорость ветра в м/с - средняя за 10 мин, порывы в срок и между сроками (в фигурных скобках) и направление, откуда дует ветер: С - северный, СВ - северо-восточный, В - восточный, ЮВ - юго-восточный, Ю - южный, ЮЗ - юго-западный, З - западный, СЗ - северо-западный.
Видимость - горизонтальная дальность видимости в метрах или километрах. При видимости от 1 до 10 км при отсутствии осадков обычно наблюдается дымка, при ухудшении видимости до 1 км и менее - туман. В сухую погоду видимость может ухудшаться дымом, пылью или мглою.
Явления - указаны атмосферные явления, наблюдавшиеся в срок или в последний час перед сроком; фигурными скобками обозначены явления, наблюдавшиеся между сроками (за 1-3 часа до срока); квадратными скобками обозначены град или гололедные отложения с указанием их диаметра в мм.
Облачность - указаны через наклонную черту общая и нижняя облачность в баллах и высота нижней границы облаков в метрах; квадратными скобками обозначены формы облаков: Ci - перистые, Cs - перисто-слоистые, Cc - перисто-кучевые, Ac - высококучевые, As - высокослоистые, Sc - слоисто-кучевые, Ns - слоисто-дождевые, Cu - кучевые, Cb - кучево-дождевые. Подробнее классификацию облаков см. в Атласе облаков (PDF).
T - Температура воздуха - температура, измеренная на высоте 2 м над землей.
Td - Температура точки росы - температура, при понижении до которой содержащийся в воздухе водяной пар достигнет насыщения.
f - Относительная влажность воздуха - влажноcть воздуха, измеренная на высоте 2 м над землей.
Te - Эффективная температура - температура, которую ощущает одетый по сезону человек в тени. Характеристика душности погоды. При расчете учитывается влияние влажности воздуха и скорости ветра на теплоощущения человека.
Tes - Эффективная температура на солнце - температура, которую ощущает человек, с поправкой на солнечный нагрев. Характеристика знойности погоды. Зависит от высоты солнца над горизонтом, облачности и скорости ветра. Ночью, в пасмурную погоду, а также при ветре 12 м/с и более поправка равна нулю.
P - Атмосферное давление - приведенное к уровню моря атмосферное давление.
Po - Атмосферное давление - измеренное на уровне метеостанции атмосферное давление.
Tmin - Минимальная температура - минимум температуры воздуха на высоте 2 м над землей.
Tmax - Максимальная температура - максимум температуры воздуха на высоте 2 м над землей.
R - Количество осадков - Количество выпавших осадков за период времени, мм. При наведении курсора мыши на число - период времени, за который выпало указанное количество осадков.
R24 - Количество осадков - Количество выпавших осадков за 24 часа, мм.
S - Снежный покров - Высота снежного покрова, см. При наведении курсора мыши на число - состояние снежного покрова и степень покрытия местности в баллах.